Wind_Speed
12 7 1 3 4 5 2 8 11 15 13 13 14 16 21 24 27 29 29 19 20 27 23 29 29 25 27 24 24 28 28 25
14 10 6 7 3 8 7 4 12 9 8 9 11 10 10 12 12 15 16 16 12 14 20 22 27 22 25 35 25 29 19 19
12 10 3 2 5 11 12 13 15 17 19 18 18 18 18 17 16 14 12 14 14 15 17 16 15 14 11 17 16 27 25 27
8 13 11 9 15 17 16 16 17 16 15 16 18 20 21 19 22 22 19 18 18 16 15 14 14 13 14 12 9 14 16 15
8 11 13 19 19 17 16 16 17 16 17 18 17 17 17 17 18 20 22 21 18 16 14 15 16 15 12 10 10 11 13 11
8 12 17 18 17 17 16 15 19 16 16 18 20 22 20 21 21 22 24 24 23 23 24 24 22 20 20 19 17 15 12 11
10 14 16 15 15 15 14 15 14 17 18 20 23 20 19 20 20 20 23 26 28 29 29 27 26 25 23 23 23 23 24 18
8 10 13 13 14 12 11 12 15 15 18 20 18 15 15 16 20 21 25 26 26 26 26 25 23 22 22 20 21 22 20 19
8 12 12 12 11 11 12 12 14 13 16 22 16 15 17 19 19 21 24 26 25 26 24 23 23 22 22 20 20 17 19 20
8 12 11 10 11 13 11 14 11 12 17 20 16 18 16 17 19 21 25 24 24 24 24 23 22 21 22 19 18 18 16 18
7 11 10 9 10 12 12 14 10 12 17 16 14 18 16 16 17 20 20 24 25 25 24 21 19 19 20 18 17 20 17 17
6 9 9 9 9 11 12 13 13 17 17 16 15 15 15 16 17 15 23 23 23 23 21 18 17 16 17 19 21 20 15 17
7 10 10 11 7 9 12 12 15 16 17 14 16 18 17 18 12 19 25 20 23 23 21 25 24 21 19 19 19 19 19 17
7 9 7 8 5 11 12 13 14 15 18 15 20 22 18 13 17 22 22 20 21 25 27 27 24 23 22 20 18 17 18 19
6 6 5 7 9 10 9 14 15 14 15 19 21 19 14 15 19 26 24 21 21 24 24 24 24 24 22 20 18 18 19 19
6 4 5 8 11 7 6 9 15 18 15 17 22 13 14 16 22 22 26 21 22 22 22 22 23 21 18 18 17 19 19 20
5 5 7 8 6 3 4 5 10 22 18 17 15 18 19 18 24 23 23 20 23 21 22 21 23 15 15 16 16 18 20 21
5 5 7 11 13 8 9 2 10 21 24 19 16 16 18 21 20 25 25 24 21 23 22 21 19 16 15 15 14 16 19 16
6 8 11 13 14 15 11 5 14 21 20 14 16 17 18 22 22 25 25 24 23 25 17 17 16 14 13 14 14 15 12 8
Wind_Direction
153 148 159 224 163 162 241 241 243 239 257 267 269 280 287 283 279 280 280 289 301 273 259 264 263 261 267 265 273 270 269 261
157 168 149 162 252 237 257 329 59 45 359 319 337 325 340 354 352 350 2 3 4 321 286 290 266 262 264 268 260 272 276 264
142 152 179 143 41 74 62 50 30 14 3 1 355 348 344 340 340 343 9 6 350 342 349 344 340 338 301 279 288 264 257 263
63 80 82 56 72 67 51 37 27 23 11 352 343 335 335 346 341 340 343 338 341 342 350 341 326 326 316 297 284 267 259 263
69 59 58 72 71 60 49 38 28 18 6 4 14 18 6 351 343 333 330 333 346 354 347 349 339 328 334 330 322 303 280 258
59 73 78 76 67 57 45 34 26 16 11 5 2 359 350 343 345 339 335 335 332 331 335 331 331 332 332 316 311 319 331 310
70 77 74 68 59 47 36 27 36 7 356 355 353 357 352 354 358 1 353 343 337 327 325 328 327 325 323 312 311 304 299 302
77 72 66 68 60 48 43 41 29 5 355 355 0 357 345 344 340 337 335 333 328 324 322 323 322 319 322 316 312 305 294 298
73 80 69 76 61 59 65 43 20 358 356 355 359 351 339 334 334 332 330 324 322 318 316 313 310 305 312 303 302 303 302 280
73 69 65 75 71 81 56 32 34 9 7 1 351 344 343 338 334 332 329 325 322 319 316 311 308 307 312 304 294 295 291 282
70 62 57 63 93 80 47 34 29 7 3 354 340 336 333 326 323 325 327 325 325 323 321 317 314 312 311 306 297 295 285 277
81 60 54 42 88 70 55 39 17 359 353 342 334 326 321 319 312 329 332 327 324 323 320 322 317 314 313 304 292 297 287 280
82 65 48 27 82 70 62 31 6 358 343 332 318 318 318 310 311 331 334 322 322 321 314 319 311 310 312 306 301 290 277 271
65 55 41 19 68 80 57 25 4 349 348 321 310 312 310 299 304 323 327 316 326 319 314 315 312 309 305 307 304 281 273 273
65 34 20 8 96 77 56 31 11 335 325 334 327 327 312 315 313 325 325 319 320 323 316 314 316 312 306 301 295 288 282 272
39 14 10 12 120 92 37 7 13 5 334 329 323 329 337 327 328 331 328 310 318 317 319 315 316 310 308 302 294 288 284 277
20 354 9 39 98 91 319 348 14 15 1 343 347 346 341 332 341 336 339 327 321 320 321 322 318 313 309 302 302 296 294 283
1 350 35 51 38 13 323 69 14 18 10 360 352 338 345 336 346 343 342 337 318 319 319 322 321 319 313 312 315 309 304 289
2 9 61 48 33 18 20 53 23 17 8 350 351 342 343 346 349 343 344 338 326 329 326 330 318 324 319 322 320 321 315 301
Height
825 828 829 831 832 832 832 831 831 830 831 831 831 831 831 829 828 827 824 823 823 821 820 820 821 821 821 821 822 823 822 823
823 826 828 829 829 829 830 832 834 834 834 833 831 829 829 828 828 826 823 819 820 818 819 817 816 814 814 818 813 817 816 819
823 824 825 828 830 830 830 831 830 830 829 829 828 826 825 824 823 822 819 818 817 817 816 815 814 813 810 811 810 810 810 814
823 825 828 828 829 830 830 831 831 830 829 827 825 823 822 820 819 818 817 817 815 815 813 812 812 810 809 808 806 809 807 807
823 825 827 828 831 831 832 832 831 830 829 828 827 827 826 825 822 819 816 814 812 811 809 809 808 807 805 805 805 804 804 801
824 826 829 831 831 831 832 831 831 830 829 828 826 825 825 822 819 817 814 811 809 808 807 805 804 804 803 801 800 800 800 800
824 827 829 830 830 830 831 831 831 831 830 828 827 825 823 821 818 815 813 810 807 805 803 801 801 799 798 797 796 795 795 795
826 827 829 830 831 831 832 831 832 830 828 827 826 824 823 821 818 816 813 810 807 804 802 800 797 796 794 792 791 789 789 789
827 829 830 831 831 832 832 831 830 829 827 826 825 824 822 819 817 814 812 809 805 802 799 797 795 792 790 789 787 786 785 785
828 830 830 831 831 831 831 831 830 829 827 825 825 823 820 818 815 812 809 806 803 799 796 793 790 788 785 783 782 781 780 780
828 829 831 831 831 831 830 829 829 829 826 825 824 822 818 816 812 809 805 802 799 795 792 789 786 784 782 780 778 777 776 775
829 830 831 831 831 831 830 829 829 828 826 824 822 818 815 812 809 806 803 799 795 792 789 786 783 780 778 776 774 772 771 770
829 830 831 831 831 830 829 829 828 826 824 822 818 815 812 809 806 802 798 795 792 788 785 782 778 776 773 771 769 767 766 765
830 830 830 830 829 829 829 828 826 824 822 818 815 811 808 806 803 799 795 791 787 784 781 777 773 771 768 766 764 762 761 760
831 831 830 829 828 828 828 826 824 822 818 815 812 809 806 803 800 796 792 787 783 780 776 773 770 766 763 761 758 756 755 754
831 831 829 828 828 827 825 824 822 819 815 813 810 807 804 801 797 793 788 783 780 776 772 769 765 762 759 756 754 751 749 747
831 829 828 827 827 825 823 822 821 818 814 811 809 806 803 799 795 790 785 780 775 772 769 765 761 758 755 752 750 746 744 742
831 829 828 827 826 825 822 822 820 817 814 811 807 804 801 797 793 788 783 777 772 768 765 762 758 755 752 749 746 743 738 735
831 829 829 828 826 824 821 821 819 816 813 809 806 803 799 795 791 786 780 775 769 764 762 759 755 752 749 746 743 739 736 733